OIBL  Bandar Lengeh Airport

Add Bookmark

Bandar Lengeh, Iran

Status IATA
Operational BDH
Latitude Longitude
26° 31' 55" N 54° 49' 29" E
26.532000 54.824799
Local (DST + 5) UTC (GMT + 4)
Oct 25, 2014 10:29 Oct 25, 2014 06:59
Sunrise-Sunset Local UTC
Begin Civil Twilight 05:30 02:00
Sunrise 05:54 02:24
Sunset 05:14 13:44
End Civil Twilight 05:38 14:08

Current Weather

METAR Observed VFR
OIBL 250600Z 21004KT CAVOK 30/22 Q1012 Sat, Oct 25, 2014 @ 06:00 UTC
(59 Minutes ago)
Visual Flight Rules
Wind Visibility Clouds Conditions
210° at 4 knots (7 kph) 10 km or more
  • Clear skies
  • No significant weather
Temperatures Readings Precipitation
Current Temp 30°C (86°F)
Dewpoint 22°C (72°F)
Heat Index 33°C (92°F)
Humidity 62%
Altimeter 29.88"Hg
Sea Level Pressure 1012mb
Field Elevation 45.93'
None Recorded

Additional weather within a 92.6km radius of OIBL

Map ICAO Location
OIBS 74.8km S (202°)
OIBA 75.7km S (164°)
OIBK 83.9km W (270°)

24 Hour Weather History

Loading
-

24 Hour Weather Graphs

Loading
-

CheckWX.com is intended as a tool to help pilots better visualize weather data. It is not intended as a substitute for an official weather briefing obtained from a Flight Service Station. CheckWX.com does not meet the FAA requirements for an official pre-flight weather briefing. Therefore, it's important that pilots still call and obtain an official FSS pre-flight weather briefing.